Change the Weather History Date:

Monday, January 27, 2014

  Actual Average Record
Temperature  
Mean Temperature 70 °F -  
Max Temperature 82 °F 80 °F - ()
Min Temperature 58 °F 64 °F - ()
Cooling Degree Days 5    
Growing Degree Days 20 (Base 50)    
Moisture  
Dew Point 64 °F    
Average Humidity 77    
Maximum Humidity 100    
Minimum Humidity 42    
Precipitation  
Precipitation 0.12 in 0.09 in - ()
Sea Level Pressure  
Sea Level Pressure 30.12 in    
Wind  
Wind Speed 9 mph ()    
Max Wind Speed 21 mph    
Max Gust Speed -    
Visibility 6.6 miles    
Events      
T = Trace of Precipitation, MM = Missing Value Source: Averaged Metar Reports

Daily Weather History Graph

Daily Weather History Graph

Search for Another Location

Airport or City:

Trip Planner

Search our weather history database for the weather conditions in past years. The results will help you decide how hot, cold, wet, or windy it might be!

Date:

Astronomy

Jan. 27, 2014 Rise Set
Actual Time 6:32 AM BRST 7:20 PM BRST
Civil Twilight 6:09 AM BRST 7:42 PM BRST
Nautical Twilight 5:42 AM BRST 8:09 PM BRST
Astronomical Twilight 5:15 AM BRST 8:36 PM BRST
Moon 2:55 AM BRST 4:08 PM BRST
Length of Visible Light 13h 33m
Length of Day
12h 47m
Waning Crescent, 16% of the Moon is Illuminated
Jan 27
Waning Crescent
Jan 30
New
Feb 6
First Quarter
Feb 14
Full
Feb 22
Last Quarter

Hourly Weather History & Observations

Time (BRST) Temp. Heat Index Dew Point Humidity Pressure Visibility Wind Dir Wind Speed Gust Speed Precip Events Conditions
12:00 AM 68.0 °F - 64.4 °F 88% 30.15 in - East 9.2 mph - N/A   Clear
1:00 AM 66.2 °F - 64.4 °F 94% 30.12 in - East 8.1 mph - N/A   Clear
1:28 AM 66.2 °F - 62.6 °F 88% 30.12 in - ENE 8.1 mph - N/A   Clear
5:30 AM 66.2 °F - 64.4 °F 94% 30.12 in 6.2 mi East 8.1 mph - N/A   Scattered Clouds
6:00 AM 64.4 °F - 64.4 °F 100% 30.12 in 6.2 mi ESE 4.6 mph - N/A   Scattered Clouds
7:00 AM 64.4 °F - 64.4 °F 100% 30.15 in 6.2 mi ESE 4.6 mph - N/A   Mostly Cloudy
8:00 AM 68.0 °F - 66.2 °F 94% 30.15 in 6.2 mi ESE 6.9 mph - N/A   Scattered Clouds
9:00 AM 71.6 °F - 66.2 °F 83% 30.18 in 6.2 mi East 11.5 mph - N/A   Mostly Cloudy
10:00 AM 72 °F - 64 °F 68% 30.02 in 12 mi SE 3.5 mph - -   Mostly Cloudy
10:00 AM 73.4 °F - 64.4 °F 73% 30.18 in 6.2 mi East 13.8 mph - N/A   Mostly Cloudy
11:00 AM 77.0 °F - 64.4 °F 65% 30.18 in 6.2 mi East 12.7 mph - N/A   Mostly Cloudy
12:00 PM 80.6 °F 81.8 °F 62.6 °F 54% 30.18 in 6.2 mi East 13.8 mph - N/A   Scattered Clouds
1:00 PM 82.4 °F 83.4 °F 62.6 °F 51% 30.15 in 6.2 mi East 13.8 mph - N/A   Scattered Clouds
2:00 PM 82.4 °F 83.4 °F 62.6 °F 51% 30.12 in 6.2 mi East 11.5 mph - N/A   Scattered Clouds
3:00 PM 84.2 °F 83.8 °F 59.0 °F 42% 30.09 in 6.2 mi ESE 13.8 mph - N/A   Scattered Clouds
4:00 PM 82 °F - 65 °F 47%  in 12 mi SE 5.8 mph - -   Partly Cloudy
4:00 PM 84.2 °F 85.0 °F 62.6 °F 48% 30.06 in 6.2 mi ESE 13.8 mph - N/A   Scattered Clouds
5:00 PM 75.2 °F - 68.0 °F 78% 30.09 in 6.2 mi ESE 20.7 mph - N/A   Scattered Clouds
6:00 PM 71.6 °F - 66.2 °F 83% 30.06 in 6.2 mi ESE 11.5 mph - N/A   Scattered Clouds
7:00 PM 73.4 °F - 64.4 °F 73% 30.09 in 6.2 mi ESE 13.8 mph - N/A   Partly Cloudy
8:00 PM 69.8 °F - 64.4 °F 83% 30.09 in - East 12.7 mph - N/A   Clear
9:00 PM 68.0 °F - 66.2 °F 94% 30.12 in 6.2 mi ESE 11.5 mph - N/A   Partly Cloudy
10:00 PM 67 °F - 64 °F 86% 29.99 in 2 mi SE 3.5 mph - -   Partly Cloudy
10:00 PM 68.0 °F - 66.2 °F 94% 30.15 in 6.2 mi East 12.7 mph - N/A   Scattered Clouds
11:00 PM 68.0 °F - 66.2 °F 94% 30.15 in 6.2 mi East 13.8 mph - N/A   Partly Cloudy